Overview Statistics Trail Chart Weather Telemetry Raw packets
 

This is the latest recevied weather packets stored in our database for station/object K7OWW-2. If no packets are shown the sender has not sent any weather packets the latest 10 day(s).

<< 13 14 15 16 17 18 19 >>
Time Temp. Humidity Pressure Rain* Wind** Luminosity Snow
1788322730 10° C 82% 1010.4 hPa 0 mm - - -
1788322130 10° C 81% 1010.3 hPa 0 mm - - -
1788321530 10.56° C 80% 1010.2 hPa 0 mm - - -
1788320929 11.11° C 79% 1009.9 hPa 0 mm - - -
1788320330 11.11° C 78% 1009.7 hPa 0 mm - - -
1788319730 11.67° C 77% 1009.5 hPa 0 mm - - -
1788319130 11.67° C 76% 1009.3 hPa 0 mm - - -
1788318530 12.22° C 75% 1009.2 hPa 0 mm - - -
1788317330 12.22° C 73% 1009 hPa 0 mm - - -
1788316730 12.78° C 72% 1009 hPa 0 mm - - -
1788316130 12.78° C 71% 1009 hPa 0 mm - - -
1788315530 13.33° C 69% 1008.7 hPa 0 mm - - -
1788314930 13.33° C 68% 1008.6 hPa 0 mm - - -
1788314330 13.89° C 66% 1008.4 hPa 0 mm - - -
1788313730 14.44° C 65% 1008.4 hPa 0 mm - - -
1788313130 15° C 64% 1008.3 hPa 0 mm - - -
1788311930 15° C 63% 1008.1 hPa 0 mm - - -
1788311330 15.56° C 61% 1007.8 hPa 0 mm - - -
1788310730 16.11° C 60% 1007.8 hPa 0 mm - - -
1788310130 16.11° C 60% 1007.7 hPa 0 mm - - -
1788309530 16.11° C 60% 1007.7 hPa 0 mm - - -
1788308930 16.11° C 58% 1007.8 hPa 0 mm - - -
1788308330 16.67° C 56% 1007.8 hPa 0 mm - - -
1788307730 17.78° C 56% 1007.8 hPa 0 mm - - -
1788307130 17.22° C 56% 1007.7 hPa 0 mm - - -

* Rain latest hour (hover to see other rain measurements)
** Current wind speed in m/s (hover to see current wind gust speed)